Location: Milano
(45.4642°N, 9.1900°E)
Time: 08:44:47
(UTC+02:00)

ISS - Pass Details

Date: 15 May 2021
Orbit: 419 x 422 km, 51.6° (Epoch: 24 June)

Event Time Altitude Azimuth Distance (km) Brightness Sun altitude
Rises 03:33:56 0° 299° (WNW) 2,444 0.1 -18.8°
Reaches altitude 10° 03:36:05 10° 302° (WNW) 1,575 -0.9 -18.6°
Maximum altitude 03:39:37 65° 25° (NNE) 495 -3.2 -18.2°
Drops below altitude 10° 03:43:09 10° 108° (ESE) 1,575 -0.6 -17.9°
Sets 03:45:11 0° 112° (ESE) 2,399 0.3 -17.7°
